|
NORAD ID: 17732 Int'l Code: 1977-121BP
Perigee: 819.3 km
Apogee: 1,075.5 km
Inclination: 65.8 °
Period: 103.8 minutes
Semi major axis: 7318 km
Launch date: December 21, 1977
Source: Commonwealth of Independent States (former USSR) (CIS)
Note: This is SATELLITE DEBRIS
Two Line Element Set (TLE):
1 17732U 77121BP 13168.03022887 .00000800 00000-0 67174-3 0 4381
2 17732 065.8123 130.4212 0175011 077.4472 350.8187 13.86689610429405
Source:
NASA's NSSDC Master Catalog entry for COSMOS 970 DEB *
|